This demonstration page uses our WeatherBlox Daily Observations layout. Learn more.

Left ArrowRight Arrow

Hourly Observations for January 13, 2020

Temp ( °F °C ) Dew Point ( °F °C ) Humidity (%) Winds ( mph kmh ) Pressure ( in mb ) Visibility ( mi km ) Precip ( " mm )
12:00 am 00:00 Cloudy with Mist and Fog 24 -4.4 22 -5.6 91 91 SSW 8 13 30.16 1021 2 2 0.00 0.00
12:53 am 00:53 Cloudy with Mist and Fog 24 -4.4 22 -5.6 91 91 S 8 13 30.10 1019 2 2 0.00 0.00
1:39 am 01:39 Cloudy with Mist and Fog 24 -4.4 22 -5.6 91 91 S 9 15 30.13 1020 1 1 0.00 0.00
1:53 am 01:53 Cloudy with Freezing Fog 23 -5 22 -5.6 96 96 S 8 13 30.08 1019 1 1 0.00 0.00
2:45 am 02:45 Cloudy with Mist and Fog 24 -4.4 22 -5.6 91 91 SSE 8 13 30.13 1020 1 2 0.00 0.00
2:53 am 02:53 Cloudy with Mist and Fog 24 -4.4 22 -5.6 91 91 SSE 10 17 30.09 1019 2 2 0.00 0.00
3:08 am 03:08 Cloudy with Mist and Fog 25 -4 21 -6 86 86 SSE 9 15 30.13 1020 3 4 0.00 0.00
3:34 am 03:34 Cloudy with Mist and Fog 24 -4.4 22 -5.6 91 91 S 8 13 30.13 1020 2 3 0.00 0.00
3:40 am 03:40 Cloudy with Mist and Fog 25 -4 21 -6 86 86 SSE 8 13 30.13 1020 3 5 0.00 0.00
3:53 am 03:53 Cloudy with Mist and Fog 24 -4.4 22 -5.6 91 91 SSE 8 13 30.09 1019 4 6 0.00 0.00
4:04 am 04:04 Cloudy with Mist and Fog 25 -4 21 -6 86 86 SSE 10 17 30.13 1020 2 3 0.00 0.00
4:15 am 04:15 Cloudy with Light Snow 24 -4.4 22 -5.6 91 91 SSE 7 11 30.13 1020 1 1 0.00 0.00
4:53 am 04:53 Cloudy with Light Snow 24 -4.4 22 -5.6 91 91 SE 8 13 30.07 1018 1 1 0.00 0.00
5:02 am 05:02 Cloudy with Light Snow 24 -4.4 22 -5.6 91 91 SSE 8 13 30.11 1020 1 2 0.00 0.00
5:37 am 05:37 Cloudy with Mist and Fog 24 -4.4 22 -5.6 91 91 SE 12 19 30.11 1020 1 1 0.00 0.00
5:53 am 05:53 Cloudy with Mist and Fog 23 -5 22 -5.6 96 96 SE 8 13 30.06 1018 1 1 0.00 0.00
6:03 am 06:03 Cloudy with Mist and Fog 23 -5 22 -5.6 96 96 SE 8 13 30.11 1020 1 2 0.00 0.00
6:53 am 06:53 Cloudy with Mist and Fog 23 -5 22 -5.6 96 96 SSE 12 19 30.06 1018 2 2 0.00 0.00
7:18 am 07:18 Cloudy with Mist and Fog 23 -5 21 -6.1 92 92 SSE 12 19 30.11 1020 2 3 0.00 0.00
7:38 am 07:38 Cloudy with Mist and Fog 23 -5 21 -6.1 92 92 SE 10 17 30.10 1019 3 5 0.00 0.00
7:53 am 07:53 Cloudy with Mist and Fog 23 -5 21 -6.1 92 92 SE 10 17 30.03 1017 3 5 0.00 0.00
8:24 am 08:24 Cloudy with Mist and Fog 23 -5 21 -6.1 92 92 SE 12 19 30.08 1018 3 4 0.00 0.00
8:49 am 08:49 Cloudy with Mist and Fog 25 -4 21 -6 86 86 SE 9 15 30.06 1018 2 2 0.00 0.00
8:53 am 08:53 Cloudy with Mist and Fog 24 -4.4 22 -5.6 91 91 SE 9 15 30.02 1017 2 3 0.00 0.00
9:20 am 09:20 Cloudy with Light Snow 24 -4.4 23 -5 96 96 SE 12 19 30.08 1019 1 1 0.00 0.00
9:29 am 09:29 Cloudy with Mist and Fog 25 -4 23 -5 93 93 SSE 9 15 30.08 1019 2 3 0.00 0.00
9:38 am 09:38 Cloudy with Mist and Fog 25 -4 23 -5 93 93 SSE 12 19 30.08 1019 3 5 0.00 0.00
9:53 am 09:53 Cloudy with Mist and Fog 25 -3.9 24 -4.4 96 96 SSE 12 19 30.03 1017 4 6 0.00 0.00
10:53 am 10:53 Cloudy with Mist and Fog 27 -2.8 26 -3.3 96 96 SSE 7 11 30.03 1017 4 6 0.00 0.00
11:53 am 11:53 Cloudy with Mist and Fog 29 -1.7 27 -2.8 92 92 SSE 7 11 30.01 1016 4 6 0.00 0.00
12:41 pm 12:41 Cloudy with Mist and Fog 30 -1.1 28 -2.2 92 92 S 9 15 29.99 1016 4 6 0.00 0.00
12:53 pm 12:53 Cloudy with Mist and Fog 30 -1.1 28 -2.2 92 92 S 7 11 29.95 1014 5 8 0.00 0.00
1:53 pm 13:53 Cloudy with Mist and Fog 31 -0.6 29 -1.7 92 92 SSE 7 11 29.92 1013 4 6 0.00 0.00
2:53 pm 14:53 Cloudy 32 0 28 -2.2 85 85 S 6 9 29.91 1013 7 11 0.00 0.00
3:53 pm 15:53 Cloudy 33 0.6 29 -1.7 85 85 S 5 7 29.92 1013 7 11 0.00 0.00
4:25 pm 16:25 Cloudy 33 0.6 29 -1.7 85 85 SSE 6 9 29.94 1014 7 11 0.00 0.00
4:53 pm 16:53 Cloudy 32 0 28 -2.2 85 85 S 7 11 29.93 1014 7 11 0.00 0.00
5:53 pm 17:53 Cloudy 32 0 28 -2.2 85 85 WSW 5 7 29.98 1015 8 13 0.00 0.00
6:53 pm 18:53 Cloudy with Mist and Fog 31 -0.6 28 -2.2 89 89 W 3 6 30.01 1016 6 10 0.00 0.00
7:16 pm 19:16 Partly Cloudy with Mist and Fog 30 -1.1 27 -2.8 88 88 Calm 30.03 1017 6 10 0.00 0.00
7:53 pm 19:53 Clear with Mist and Fog 28 -2.2 25 -3.9 88 88 Calm 30.01 1016 4 6 0.00 0.00
8:53 pm 20:53 Clear with Mist and Fog 26 -3.3 24 -4.4 92 92 Calm 30.01 1016 3 5 0.00 0.00
9:38 pm 21:38 Clear with Mist and Fog 25 -3.9 22 -5.6 88 88 SSW 6 9 30.08 1019 2 3 0.00 0.00
9:49 pm 21:49 Clear with Mist and Fog 27 -3 25 -4 93 93 SSW 5 7 30.07 1018 5 8 0.00 0.00
9:53 pm 21:53 Clear with Mist and Fog 26 -3.3 25 -3.9 96 96 SSW 3 6 30.03 1017 4 6 0.00 0.00
10:53 pm 22:53 Clear with Mist and Fog 26 -3.3 24 -4.4 92 92 SSW 5 7 30.04 1017 6 10 0.00 0.00
11:53 pm 23:53 Clear 24 -4.4 22 -5.6 91 91 SSW 6 9 30.06 1018 7 11 0.00 0.00

Powered by AerisWeather